Weather in Tulaga

Russia / Nizhny Novgorod Oblast'     57°35′02″N   45°48′07″E
temp.,
°C
wind,
m/s
gust,
m/s
humid.,
%
clouds,
%
prec.,
mm/h
press.,
hPa
HPBL,
m
14 april, wed
wed1400:00+6s3119053 0.0 1028173
03:00+5s398978 0.0 1027135
06:00+5s379374 0.0 1027112
09:00+12s387760 0.0 1026244
12:00+16s476046 0.0 1025580
15:00+17s485870 0.0 1024919
18:00+12s277651 0.0 1022118
21:00+8s36851 0.0 102291
15 april, thu
thu1500:00+8s36915 0.0 102195
03:00+7ssw239360 0.0 102041
06:00+7ssw229227 0.0 102027
09:00+13wsw12695 0.0 1020319
12:00+17nw115674 0.0 1019922
15:00+17n4454100 0.1 10191409
18:00+9nne61181100 0.1 1022532
21:00+6ne51283100 0.1 1024516
16 april, fri
fri1600:00+5ne5128276 0.0 1025569
03:00+4ne5128158 0.0 1026583
06:00+3ne5127361 0.0 1027540
09:00+6ene69555 0.0 1028759
12:00+10ene67400 0.0 10281104
15:00+11ene57373 0.0 10281265
18:00+8ene48470 0.0 1029461
21:00+4ne39640 0.0 1030166
17 april, sat
sat1700:00+2ne37690 0.0 1030136
03:00+1ne36740 0.0 1031115
06:00+1ne27735 0.0 1032174
09:00+7ne36512 0.0 1032672
12:00+10ne45390 0.0 10311367
15:00+12nne45385 0.0 10301659
18:00+10nne25515 0.0 1029131
21:00+5nne23661 0.0 103048
18 april, sun
sun1800:00+4nne25765 0.0 103073
03:00+2nne24795 0.0 103173
06:00+3n26797 0.0 1031153
09:00+9nne355911 0.0 1031723
12:00+12nne454519 0.0 10301690
15:00+11ne5553100 0.0 10301468
18:00+8ene576569 0.0 1032755
21:00+5ene37725 0.0 1033325